Карточка аэропорта UWLW

Внимание!
Информация на этой странице в стадии наполнения.
Если вы не увидели какой-то информации, или заметили неточность - пожалуйста сообщите нам!
Спасибо!
Команда RU-STAFF
Название аэропортаВосточный
Название аэропорта (англ.)Vostochny
Превышение252 ft. (76.8 m.)
Координаты54°24', 48°48'
Высота перехода900m
Эшелон переходаQFE>=726mm:FL050; QFE<726:FL060
Коды ответчика6725-6727
Зона ОрВДСамара РПИ (UWWW)
Данные METARUWLW 220100Z VRB01MPS CAVOK 11/09 Q1018 R02/CLRD60 NOSIG RMK QFE757/1009
Проноз погоды (TAF)UWLW 211951Z 2121/2221 09005G10MPS 9999 SCT030 TX25/2211Z TN14/2203Z TEMPO 2121/2203 06007MPS TEMPO 2203/2215 13006G13MPS BKN016CB
NOTAMshow/hide NOTAM
AWOS   TABLE

Информация о ВПП

ВПП Длина ВПП (м.) Покрытие Курс ВПП Частота ILS
205000Железобетон200110.1
025000Железобетон20110.1

Диспетчерские позиции


Сценарии



Спутниковое изображение